Regional Weather Roundup
Issued by NWS

Home | Current Version | Previous Version | Text Only | Print | Product List | Glossary On
Versions: 1 2 3 4 5 6 7 8 9 10 11 12 13 14 15 16 17 18 19 20 21 22 23 24 25 26 27 28 29 30 31 32 33 34 35 36 37 38 39 40 41 42 43 44 45 46 47 48 49 50
991
ASUS43 KBIS 171810
RWRND

NORTH DAKOTA REGIONAL WEATHER ROUNDUP
NATIONAL WEATHER SERVICE BISMARCK ND
1200 PM CST TUE JAN 17 2017

NOTE: "FAIR" INDICATES FEW OR NO CLOUDS BELOW 12,000 FEET WITH NO
SIGNIFICANT WEATHER AND/OR OBSTRUCTIONS TO VISIBILITY.


NDZ001>003-009>011-017-171900-
NORTHWEST NORTH DAKOTA

CITY           SKY/WX    TMP DP  RH WIND       PRES   REMARKS
WILLISTON      FAIR      21  12  68 SW10      29.76F WCI  10
6HR MIN TEMP:   7; 6HR MAX TEMP:  21;

MINOT          FAIR      25  13  60 S23       29.73F WCI  10
$$

NDZ018>021-031>035-040>046-171900-
SOUTHWEST NORTH DAKOTA

CITY           SKY/WX    TMP DP  RH WIND       PRES   REMARKS
BISMARCK       FAIR      13   8  81 E5        29.89F WCI   5
6HR MIN TEMP:  -1; 6HR MAX TEMP:  13;

DICKINSON      FAIR      27  15  61 S12       29.79F WCI  17
GARRISON         N/A     21  13  71 SW12      29.79F WCI   9
6HR MIN TEMP:   2; 6HR MAX TEMP:  22;

HETTINGER ARPT CLOUDY    27  12  53 NW6       29.88F
$$

NDZ004>008-012>016-024-026-027-054-171900-
NORTHEAST NORTH DAKOTA

CITY           SKY/WX    TMP DP  RH WIND       PRES   REMARKS
GRAND FORKS    CLOUDY    16  10  77 S15       29.89F WCI   1
GRND FRKS AFB  SUNNY     22  15  74 S12       29.87F WCI  10
DEVILS LAKE    FAIR      25  18  74 SW15      29.81F WCI  13
$$

NDZ022-023-025-028>030-036>039-047>053-171900-
SOUTHEAST NORTH DAKOTA

CITY           SKY/WX    TMP DP  RH WIND       PRES   REMARKS
FARGO          SUNNY     17  11  77 S9        29.94F WCI   6
6HR MIN TEMP:   2; 6HR MAX TEMP:  17;

JAMESTOWN      FAIR      24  19  81 SW9       29.88F WCI  14
$$





USA.gov is the U.S. government's official web portal to all federal, state and local government web resources and services.